Weather History for Hyannis, MA

Change the Weather History Date:

Monday, December 24, 2012

  Actual Average Record
Temperature  
Mean Temperature 33 °F -  
Max Temperature 39 °F 40 °F 61 °F (2014)
Min Temperature 27 °F 24 °F 0 °F (1955)
Degree Days  
Heating Degree Days 32    
Moisture  
Dew Point 23 °F    
Average Humidity 67    
Maximum Humidity 82    
Minimum Humidity 49    
Precipitation  
Precipitation 0.00 in - - ()
Sea Level Pressure  
Sea Level Pressure 30.01 in    
Wind  
Wind Speed 5 mph (West)    
Max Wind Speed 10 mph    
Max Gust Speed 16 mph    
Visibility 10 miles    
Events      
Averages and records for this station are not official NWS values.
T = Trace of Precipitation, MM = Missing Value Source: NWS Daily Summary

Daily Weather History Graph

Daily Weather History Graph

Search for Another Location

Airport:

Trip Planner

Search our weather history database for the weather conditions in past years. The results will help you decide how hot, cold, wet, or windy it might be!

Date:

Astronomy

Dec. 24, 2012 Rise Set
Actual Time 7:06 AM EST 4:15 PM EST
Civil Twilight 6:34 AM EST 4:47 PM EST
Nautical Twilight 5:59 AM EST 5:22 PM EST
Astronomical Twilight 5:25 AM EST 5:56 PM EST
Moon 1:42 PM EST (12/24) 3:40 AM EST (12/24)
Length of Visible Light 10h 12m
Length of Day
9h 09m
Waxing Gibbous, 88% of the Moon is Illuminated
Dec 24
Waxing Gibbous
Dec 28
Full
Jan 4
Last Quarter
Jan 11
New
Jan 18
First Quarter

Hourly Weather History & Observations

Time (EST) Temp. Windchill Dew Point Humidity Pressure Visibility Wind Dir Wind Speed Gust Speed Precip Events Conditions
12:56 AM 30.9 °F 25.2 °F 21.9 °F 69% 29.89 in 10.0 mi WSW 5.8 mph - N/A   Clear
1:56 AM 30.9 °F 24.3 °F 21.9 °F 69% 29.91 in 10.0 mi West 6.9 mph - N/A   Clear
2:56 AM 30.9 °F 25.2 °F 21.9 °F 69% 29.92 in 10.0 mi West 5.8 mph - N/A   Clear
3:56 AM 30.9 °F 24.3 °F 21.0 °F 67% 29.92 in 10.0 mi West 6.9 mph - N/A   Clear
4:56 AM 30.9 °F 25.2 °F 21.0 °F 67% 29.94 in 10.0 mi West 5.8 mph - N/A   Clear
5:56 AM 30.0 °F 24.1 °F 21.0 °F 69% 29.96 in 10.0 mi West 5.8 mph - N/A   Clear
6:56 AM 30.0 °F 24.1 °F 21.9 °F 72% 29.99 in 10.0 mi West 5.8 mph - N/A   Clear
7:56 AM 33.1 °F 27.7 °F 21.9 °F 64% 30.01 in 10.0 mi Variable 5.8 mph - N/A   Clear
8:56 AM 36.0 °F 31.1 °F 21.9 °F 57% 30.04 in 10.0 mi WNW 5.8 mph - N/A   Clear
9:56 AM 37.9 °F 30.9 °F 21.9 °F 53% 30.05 in 10.0 mi WNW 10.4 mph 16.1 mph N/A   Clear
10:56 AM 37.9 °F 34.4 °F 21.0 °F 51% 30.04 in 10.0 mi WNW 4.6 mph - N/A   Clear
11:56 AM 39.9 °F 35.8 °F 21.9 °F 49% 30.03 in 10.0 mi North 5.8 mph - N/A   Clear
12:56 PM 39.0 °F 36.8 °F 21.9 °F 50% 30.01 in 10.0 mi South 3.5 mph - N/A   Clear
1:56 PM 39.0 °F 34.0 °F 23.0 °F 53% 30.04 in 10.0 mi SSW 6.9 mph - N/A   Clear
2:56 PM 37.9 °F 34.4 °F 23.0 °F 55% 30.04 in 10.0 mi SW 4.6 mph - N/A   Clear
3:56 PM 34.0 °F - 24.1 °F 67% 30.03 in 10.0 mi Calm Calm - N/A   Clear
4:56 PM 30.9 °F - 21.9 °F 69% 30.06 in 10.0 mi Calm Calm - N/A   Clear
5:56 PM 28.0 °F - 21.0 °F 75% 30.04 in 10.0 mi Calm Calm - N/A   Clear
6:56 PM 27.0 °F - 21.9 °F 81% 30.06 in 10.0 mi Calm Calm - N/A   Clear
7:56 PM 27.0 °F - 21.9 °F 81% 30.06 in 10.0 mi Calm Calm - N/A   Clear
8:56 PM 28.9 °F - 24.1 °F 82% 30.05 in 10.0 mi Calm Calm - N/A   Clear
9:56 PM 30.0 °F - 25.0 °F 82% 30.04 in 10.0 mi Calm Calm - N/A   Mostly Cloudy
10:56 PM 30.9 °F - 26.1 °F 82% 30.03 in 10.0 mi Calm Calm - N/A   Overcast
11:56 PM 33.1 °F - 28.0 °F 82% 30.00 in 10.0 mi Calm Calm - 0.00 in   Overcast